User: anonymous   Login
Location: Unspecified
(0.0000°N, 0.0000°E)
Time: 23:31:11
(UTC+00:00)
Language:

Lacrosse 5 - Orbit

View from above orbital plane
View from above orbital plane
View from above satellite
View from above satellite

Ground track
Ground track

The orbit data is extracted from the following two-line orbital elements,

1 28646U 05016A   17338.68745551 0.00000000  00000-0  00000-0 0    04
2 28646  57.0100 210.1633 0006000  96.3519 263.6481 14.51912832    02
Epoch (UTC): 04 December 2017 16:29:56
Eccentricity: 0.0006000
inclination: 57.0100°
perigee height: 715 km
apogee height: 723 km
right ascension of ascending node: 210.1633°
argument of perigee: 96.3519°
revolutions per day: 14.51912832
mean anomaly at epoch: 263.6481°
orbit number at epoch: 0

The dashed part of the orbit path shows where the satellite is in the earth's shadow,  

DLR